Location: Poughquag
(41.6090°N, 73.6820°W)
Time: 03:28:25
(UTC-04:00)

Vanguard 1 Rocket - Pass Details

Date: 03 June 2020
Orbit: 653 x 4224 km, 34.3° (Epoch: 06 July)

Event Time Altitude Azimuth Distance (km) Brightness Sun altitude
Rises 19:35:45 0° 175° (S) 8,253 12.0 7.2°
Reaches altitude 10° 19:48:02 10° 151° (SSE) 7,419 11.6 5.1°
Maximum altitude 19:56:16 12° 132° (SE) 7,061 11.3 3.8°
Drops below altitude 10° 20:03:57 10° 113° (ESE) 6,965 11.2 2.5°
Sets 20:13:57 0° 89° (E) 7,300 11.5 0.9°
